{"data":{"norad_id":62866,"intl_designator":"2025-022N","name":"STARLINK-32695","alt_names":[],"object_type":"PAYLOAD","status":"ACTIVE","operator":null,"country":"US","launch_date":"2025-02-01","launch_site_code":"AFWTR","launch_vehicle":null,"mission":null,"orbit_class":"UNKNOWN","rcs_meters":null,"size_class":null,"mass_kg":null,"dimensions":null,"purposes":["comms"],"wikipedia_slug":null,"has_3d_model":false,"image_url":null,"decayed_at":null,"tle_current":{"epoch":"2026-09-21T03:43:58.508256Z","epoch_age_seconds":111595,"freshness":"FRESH","line1":"1 62866U 25022N   26264.15553829  .00010633  00000+0  32539-3 0  9994","line2":"2 62866  53.1598 296.9550 0001702  96.8080 263.3116 15.34399811 91891","mean_motion":15.34399811,"eccentricity":0.0001702,"inclination_deg":53.1598,"raan_deg":296.955,"arg_perigee_deg":96.808,"mean_anomaly_deg":263.3116,"bstar":0.00032539,"rev_number":9189,"period_min":93.847769641051,"perigee_km":461.5394908505,"apogee_km":463.86811305949,"semimajor_km":6840.840801955,"source":"CELESTRAK","updated_at":"2026-09-22T09:00:49.678156Z"}}}